Miscellaneous Local Product
Issued by NWS Hastings, NE

Home | Current Version | Previous Version | Text Only | Print | Product List | Glossary On
Versions: 1 2 3 4 5 6 7 8 9 10 11 12 13 14 15 16 17 18 19 20 21 22 23 24 25 26 27 28 29 30 31 32 33 34 35 36 37 38 39 40 41 42 43 44 45 46 47 48 49 50
462
AXUS43 KGID 251102
MISGRI

GID CWA HOURLY WEATHER ROUNDUP
NATIONAL WEATHER SERVICE HASTINGS NE
600 AM CDT SAT MAR 25 2017

NOTE: "FAIR" INDICATES FEW OR NO CLOUDS BELOW 12,000 FEET WITH NO
SIGNIFICANT WEATHER AND/OR OBSTRUCTIONS TO VISIBILITY.

...SOUTH CENTRAL NEBRASKA...

CITY           SKY/WX    TMP DP  RH WIND       PRES   REMARKS
GRAND ISLAND   LGT RAIN  36  36 100 N17       30.03S FOG     WCI  26
HASTINGS       CLOUDY    38  36  92 N20       30.01S FOG     WCI  28
KEARNEY        CLOUDY    37  34  87 N18       30.03S WCI  27
ORD            FOG       36  34  92 NE10      30.06R VSB 3/4 WCI  28
YORK           MIX PCPN  37  37 100 N21G26    29.99S WCI  27
AURORA         CLOUDY    36  36  98 N21G29    30.01S FOG     WCI  25
LEXINGTON      CLOUDY    35  32  91 N10       30.05R WCI  27
HOLDREGE       CLOUDY    38  36  94 N13       30.02R FOG     WCI  30
HEBRON         LGT RAIN  39  38  94 N16       29.97R WCI  30

...NEBRASKA PANHANDLE...

CITY           SKY/WX    TMP DP  RH WIND       PRES   REMARKS
CHADRON        CLOUDY    33  28  81 CALM      30.00S
ALLIANCE       CLOUDY    23  21  92 SE7       30.03S WCI  15
SCOTTSBLUFF    CLOUDY    30  25  81 E8        30.03S WCI  22
SIDNEY         CLOUDY    21  19  92 SW6       30.06F WCI  13

...WESTERN AND NORTH CENTRAL NEBRASKA...

CITY           SKY/WX    TMP DP  RH WIND       PRES   REMARKS
VALENTINE      CLOUDY    20  17  88 CALM      30.06S
AINSWORTH      SNOW      29  29 100 NE5       30.06S VSB 1/4 WCI  24
ONEILL         CLOUDY    35  35  99 N7        30.08R FOG     WCI  29
BROKEN BOW     CLOUDY    34  32  92 N10       30.05R WCI  26
IMPERIAL       CLOUDY    32  27  81 NW8       30.06R WCI  25
NORTH PLATTE   CLOUDY    27  23  85 W5        30.05F WCI  22
MCCOOK         CLEAR     34  32  92 N6        30.03F WCI  29

...EASTERN NEBRASKA...

CITY           SKY/WX    TMP DP  RH WIND       PRES   REMARKS
NORFOLK        CLOUDY    35  34  96 N20       30.04S FOG     WCI  24
SO SIOUX CITY  CLOUDY    38  38 100 N16       30.05R FOG     WCI  29
TEKAMAH        LGT RAIN  40  37  89 N21G30    30.00R WCI  30
COLUMBUS       CLOUDY    37  34  87 N21G28    30.02S WCI  27
ALBION         CLOUDY    37  34  90 N12G20    30.06S FOG     WCI  29
OMAHA EPPLEY   RAIN      41  37  86 N16       29.95R FOG
OFFUTT AFB     LGT RAIN  41  39  91 N9G17     29.94R
MILLARD        RAIN      42  41  95 N8        29.96R
LINCOLN        LGT RAIN  40  39  97 N17       29.97R FOG     WCI  31
NEBRASKA CITY  RAIN      40  40 100 N16G24    29.90R WCI  32
BEATRICE       MIX PCPN  41  40  97 N18       29.93R
FALLS CITY     LGT RAIN  43  43 100 N14G21    29.85R FOG

...NORTHERN KANSAS...

CITY           SKY/WX    TMP DP  RH WIND       PRES   REMARKS
GOODLAND       CLEAR     33  30  88 NW12      30.04F WCI  24
HILL CITY      CLOUDY    42  39  89 N9        30.00S
NORTON         SUNNY     37  32  81 NW12      30.01R WCI  30
PHILLIPSBURG   CLOUDY    43  39  87 N10G18    30.01S
HAYS             N/A     43  38  82 N21       29.99R
RUSSELL        CLOUDY    41  38  89 N18       29.97R
CONCORDIA      LGT RAIN  40  39  97 N17G24    29.94R WCI  31
SALINA         RAIN      44  41  89 NW18      29.93R
TOPEKA         CLOUDY    46  45  96 NW12      29.82R



USA.gov is the U.S. government's official web portal to all federal, state and local government web resources and services.